Tracking 25195 objects as of 20-Jan-2022
HD Live streaming from Space Station
objects crossing your sky now

STARLINK-3271

Track STARLINK-3271 now!
10-day predictions
STARLINK-3271 is classified as:


NORAD ID: 50167
Int'l Code: 2021-125M
Perigee: 374.2 km
Apogee: 375.9 km
Inclination: 53.2 °
Period: 91.9 minutes
Semi major axis: 6746 km
RCS: Unknown
Launch date: December 18, 2021
Source: United States (US)
Launch site: AIR FORCE WESTERN TEST RANGE (AFWTR)
aabbcc
Your satellite tracking list
Your tracking list is empty




NASA's NSSDC Master Catalog

Two Line Element Set (TLE):
1 50167U 21125M   22020.58334491 -.00659163  00000-0 -66177-2 0  9994
2 50167  53.2176 202.1157 0001279  65.1194 180.3911 15.66849105  3717
Source of the keplerian elements: AFSPC